Regional Weather Roundup
Issued by NWS

Home | Current Version | Previous Version | Text Only | Print | Product List | Glossary Off
Versions: 1 2 3 4 5 6 7 8 9 10 11 12 13 14 15 16 17 18 19 20 21 22 23 24 25 26 27 28 29 30 31 32 33 34 35 36 37 38 39 40 41 42 43 44 45 46 47 48 49 50

000
ASUS43 KLOT 010503
RWRIL

ILLINOIS REGIONAL WEATHER ROUNDUP
NATIONAL WEATHER SERVICE CHICAGO/ROMEOVILLE IL
1200 AM CDT WED JUN 01 2016

NOTE: "FAIR" INDICATES FEW OR NO CLOUDS BELOW 12,000 FEET WITH NO
SIGNIFICANT WEATHER AND/OR OBSTRUCTIONS TO VISIBILITY.

* THESE STATIONS ARE NOT UNDER NWS QUALITY CONTROL. THEY ALSO MAY NOT
  REPORT WEATHER SUCH AS PRECIPITATION OR FOG.

ILZ001-002-007-009-015-016-024-010600-
NORTHWEST ILLINOIS

CITY           SKY/WX    TMP DP  RH WIND       PRES   REMARKS
MOLINE         CLOUDY    70  62  76 NW25G32   29.94R
STERLING*      LGT RAIN  68  63  84 SE6       29.93F
$$

ILZ003-004-008-010-011-017-018-010600-
NORTH CENTRAL ILLINOIS

CITY           SKY/WX    TMP DP  RH WIND       PRES   REMARKS
ROCKFORD       CLOUDY    66  62  87 S7        29.96F
FREEPORT*      CLOUDY    65  61  88 SE9       29.95F
ROCHELLE*      CLOUDY    66  62  85 SE13G18   29.94F
$$

ILZ005-006-012>014-019>023-010600-
NORTHEAST ILLINOIS

CITY           SKY/WX    TMP DP  RH WIND       PRES   REMARKS
CHICAGO-OHARE  CLOUDY    65  59  81 SE12      29.96F
CHICAGO-MIDWAY CLOUDY    65  59  81 E6        29.97F
AURORA         CLOUDY    67  63  87 CALM      29.97S
LANSING*       CLOUDY    65  60  83 E6        29.97F
WAUKEGAN       MOCLDY    61  59  93 S12       29.97S
DUPAGE AIRPORT CLOUDY    66  60  81 SE6       29.96S
WHEELING       CLOUDY    66  60  81 SE9       29.98F
NORTHERLY ISL    N/A     61  58  90 NE2         N/A
$$

LMZ740>746-010600-
SOUTHERN LAKE MICHIGAN

STATION/POSITION SKY/WX   TEMP    WIND        PRES    VSBY  WAVE
                          AIR SEA DIR/SP/G                  HT/PER
                          (F)     (DEG/KT/KT) (MB)    (MI)  (FT/S)
SOUTHERN BUOY              58 54   90/ 10/ 12 1014.4          1/ 4
WILMETTE HARBOR            59 58  170/  8/ 10   N/A           1
HARRISON CRIB              62     150/  6/  8   N/A
BURNHAM HARBOR             60     330/  2/  4   N/A
CALUMET HARBOR             62     100/  3/  5 1014.8R
BURNS HARBOR               63      70/  5/ 10 1015.6S
MICHIGAN CITY              64      60/  7/  8   N/A
MICHIGAN CITY 6N           63 62   80/  8/ 10   N/A           1/ 3
ST. JOSEPH                 65 64   80/  8/ 12   N/A           2
$$

ILZ025>027-034>036-040-047-049-050-058-095>099-010600-
WEST-CENTRAL ILLINOIS

CITY           SKY/WX    TMP DP  RH WIND       PRES   REMARKS
QUINCY         MOCLDY    71  64  78 SE5       29.90F
MACOMB*        CLOUDY    72  64  77 SE6       29.94F
PITTSFIELD*    PTCLDY    69  67  92 CALM      29.93F
$$

ILZ028>032-037-038-041>044-048-051>054-059>061-010600-
CENTRAL ILLINOIS

CITY           SKY/WX    TMP DP  RH WIND       PRES   REMARKS
BLOOMINGTON    CLOUDY    68  63  84 CALM      29.97S
DECATUR        CLOUDY    68  62  81 CALM      29.95F
PEORIA         CLOUDY    70  62  76 SE7       29.93F
SPRINGFIELD    PTCLDY    70  63  78 E6        29.94F
TAYLORVILLE    NOT AVBL
$$

ILZ033-039-045-046-055>057-062-063-010600-
EAST-CENTRAL ILLINOIS

CITY           SKY/WX    TMP DP  RH WIND       PRES   REMARKS
CHAMPAIGN      CLOUDY    69  63  81 NE12      29.96F
MATTOON        CLOUDY    71  60  68 CALM      29.95F
$$

ILZ079-100>102-010600-
SOUTHWEST ILLINOIS

CITY           SKY/WX    TMP DP  RH WIND       PRES   REMARKS
BELLEVILLE     CLOUDY    72  68  85 SE3       29.92F
CAHOKIA*       MOCLDY    71  68  90 S5        29.92F
SPARTA*        CLOUDY    70  65  86 CALM      29.95S
$$

ILZ064>066-069>071-074>076-080>082-084>086-088>090-092>094-010600-
SOUTH-CENTRAL ILLINOIS

CITY           SKY/WX    TMP DP  RH WIND       PRES   REMARKS
CARBONDALE     PTCLDY    69  66  90 CALM      29.93F
EFFINGHAM*     CLOUDY    70  66  87 CALM      29.96F
MT. VERNON     CLOUDY    70  64  83 CALM      29.95S
SALEM*         CLOUDY    74  67  76 CALM      29.94F
$$

ILZ067-068-072-073-078-083-087-091-010600-
SOUTHEAST ILLINOIS

CITY           SKY/WX    TMP DP  RH WIND       PRES   REMARKS
LAWRENCEVILLE  PTCLDY    72  65  78 CALM      29.95S
FLORA*         CLOUDY    74  68  80 CALM      29.94F
HARRISBURG*    CLOUDY    73  70  91 CALM      29.94F
ROBINSON*      CLOUDY    71  63  76 NW5       29.96S
$$

ABBREVIATIONS USED IN REMARKS
   TC - TEMPERATURE IN CELSIUS
  WCI - WIND CHILL INDEX
   HX - HEAT INDEX
  VSB - VISIBILITY
$$




USA.gov is the U.S. government's official web portal to all federal, state and local government web resources and services.